CZ-6A DEB, 60695

Orbit data source: Space-Track

CZ-6A DEB, 60695 is space debris in LEO originally from a launch on Tue, 06 Aug 2024 UTC launched from the Taiyaun Space Center, China (TSC). Debris objects in space refer to the collection of defunct objects orbiting the Earth. Examples of debris include non-operational satellites, rocket bodies, and fragments generated from explosions, collisions, or faulty payload assembly.

Loading next visibility...
Identifier
60695, 2024-140CY
Orbit
LEO
Country
Flag of CNCN / PRC
Related business
Manufacturer
SAST
Mission
Spacecraft
Bus & Motor
Unknown
Mass
Unknown
Launch date (UTC)
2024-08-06 (2 years ago)
Launch vehicle
Unknown
Launch site
Taiyaun Space Center, China (TSC)
Object type
Payload
Rocket body
Debris
Shape & HBR
Unknown shape, 0.2 m
Radar Cross Section
Medium (>0.1 m² and <1 m²)

Expand to show TLE details & history
Last TLE update: 15 hours ago

TLE from 15 hours ago
0 CZ-6A DEB
1 60695U 24140CY  26171.33416836  .00000560  00000-0  26747-3 0  9998
2 60695  89.0340 277.4013 0058562 180.6886 179.4232 14.16982150 96054
Epoch: 2026-06-20T08:01Z
TLE epoch observation values (Epoch: 2026-06-20T08:01:12.146Z)
Latitude
-0.00001°
Longitude
-111.44959°
Altitude
880.878 km
Speed
7.39 km/s
True Right ascension
18h 29m 36s
True Declination
0° 00' 00"
Sunlit
Object was in full shadow at epoch
Visualization orbit readout
Latitude
Unknown
Longitude
Unknown
Altitude
Unknown
Speed
Unknown
Apparent Right ascension
Unknown
Apparent Declination
Unknown
Sunlit
N/A
Visualization observer readout
Local Sidereal Time
10:18:53
Azimuth
Unknown
Elevation
Unknown
Doppler factor
Unknown
Orbital elements
Apogee altitude
874.759 km
Perigee altitude
790.305 km
Semi-major axis
7,210.669 km
Eccentricity
0.00586
Inclination
89.034°
RAAN
277.4013°
Arg. of periapsis
180.6886°
True anomaly
179.42991°
Mean anomaly
179.4232°
Eccentric anomaly
179.42656°
Mean motion
3.5447 °/min
Orbital period
101.56 mins
BSTAR
0.00026747
Loading maneuver chart data...
Computing Atmospheric mass density...
Loading historical data...
Loading historical data...
Loading historical data...
Loading historical data...
Loading historical data...
Loading historical data...
Loading historical data...

Documentation

Showing up to 5 results
|